Lapse_Rate
4.9 4.9 4.9 4.9 4.9 4.8 4.8 4.7 4.8 4.8 4.9 5.0 5.1 5.2 5.3 5.3 5.3 5.3 5.2 5.2 5.3 5.3 5.3 5.3 5.3 5.2 5.1 5.3 5.4 5.1 5.5 5.8 6.0 6.4 6.7 7.1 7.5 7.8 7.7 8.3 8.2 8.2 8.2 8.0 7.9 7.5 7.4
4.7 4.7 4.8 4.8 4.9 4.9 4.8 4.9 5.0 5.0 5.0 5.0 5.1 5.2 5.3 5.3 5.3 5.3 5.3 5.4 5.4 5.4 5.4 5.5 5.5 5.4 5.4 5.5 5.0 5.4 5.6 5.6 5.7 6.2 6.6 6.9 7.3 7.7 7.7 8.2 8.2 8.3 8.0 7.8 7.9 7.6 7.2
4.8 5.0 5.1 5.1 5.0 5.0 5.0 4.8 4.9 4.9 5.0 5.1 5.2 5.2 5.2 5.2 5.3 5.3 5.2 5.3 5.5 5.6 5.5 5.6 5.7 5.6 5.7 5.3 5.4 5.4 5.5 5.8 5.8 6.2 6.5 7.2 7.3 6.9 7.7 8.0 8.0 8.0 7.9 7.9 7.7 7.7 7.2
4.6 4.7 4.8 5.0 5.2 5.3 5.4 5.4 5.3 5.3 5.2 5.1 5.2 5.2 5.2 5.3 5.3 5.2 5.2 5.3 5.4 5.6 5.7 5.6 5.7 5.7 5.9 5.8 5.7 5.8 5.6 5.8 5.9 6.1 6.5 6.7 7.1 7.4 7.3 7.7 7.7 8.1 8.3 8.5 7.7 7.4 7.4
4.4 4.5 4.6 4.7 4.9 5.0 5.1 5.3 5.4 5.6 5.6 5.4 5.4 5.3 5.1 5.2 5.3 5.1 5.2 5.2 5.3 5.5 5.7 5.7 5.7 5.7 5.7 5.9 5.9 6.1 5.9 5.8 5.8 6.0 6.3 6.6 6.7 7.0 7.1 7.7 8.1 8.1 9.2 9.3 7.9 7.4 7.6
4.4 4.4 4.4 4.4 4.5 4.6 4.7 4.9 5.0 5.2 5.4 5.5 5.7 5.7 5.3 5.4 5.3 5.2 5.1 5.2 5.2 5.4 5.7 5.7 5.7 5.7 5.7 5.5 5.8 6.0 6.0 6.0 5.8 5.9 6.2 6.3 6.3 6.6 7.4 7.9 8.4 8.7 8.7 9.5 8.7 7.7 7.3
4.5 4.4 4.3 4.3 4.3 4.5 4.5 4.6 4.6 4.7 4.9 5.0 5.3 5.5 5.2 5.4 5.4 5.4 5.3 5.4 5.2 5.2 5.6 5.8 5.7 6.0 5.7 5.4 5.5 5.8 5.9 6.0 5.9 5.8 5.9 5.7 6.1 6.3 7.3 8.0 8.7 9.5 9.1 9.5 9.4 8.5 7.9
4.1 4.2 4.3 4.4 4.4 4.3 4.3 4.4 4.4 4.4 4.6 4.7 4.9 5.3 5.0 4.9 5.0 5.3 5.4 5.4 5.2 5.0 5.8 5.7 5.8 6.1 5.8 5.6 5.2 5.5 5.7 5.8 5.6 5.9 6.2 5.8 5.8 7.2 7.8 8.1 8.5 9.0 9.4 9.5 9.4 8.3 8.2
4.0 3.9 3.9 4.0 4.2 4.3 4.3 4.3 4.3 4.4 4.5 4.5 4.4 5.0 5.3 4.8 4.9 4.9 5.2 5.2 5.2 5.2 5.2 6.6 6.1 6.3 6.2 5.8 5.9 5.3 5.7 5.6 6.0 6.3 6.2 6.3 6.8 7.4 7.5 7.9 8.4 8.7 9.0 9.5 9.4 8.4 8.1
3.9 4.0 4.0 3.9 4.1 4.1 4.3 4.3 4.4 4.5 4.4 4.3 4.6 4.7 5.3 4.9 4.9 5.0 5.1 5.0 4.8 4.9 5.1 5.7 6.3 5.9 6.1 6.3 6.0 5.8 5.2 5.7 5.9 6.4 6.4 6.7 7.2 6.9 6.9 7.6 8.1 8.7 8.7 9.2 9.4 9.0 9.0
3.9 4.0 4.1 4.1 4.1 4.0 4.1 4.2 4.4 4.6 4.6 4.4 4.4 4.2 5.0 5.0 5.0 4.7 4.9 5.0 4.9 4.6 6.3 5.8 5.4 5.8 5.6 5.9 5.8 5.9 5.6 5.5 6.0 6.4 6.5 6.7 6.5 6.2 7.0 7.1 7.9 8.2 9.2 8.8 9.3 9.3 9.3
3.5 3.6 3.7 4.0 4.3 4.4 4.3 4.2 4.2 4.4 4.4 4.4 4.3 4.2 4.5 4.8 4.7 4.7 4.7 4.8 4.8 5.0 6.0 6.0 5.5 5.7 6.1 6.2 6.0 6.2 5.6 5.7 6.2 6.4 6.3 7.2 6.8 6.7 7.2 7.6 7.8 8.2 9.0 8.6 9.3 9.3 9.6
3.1 3.1 3.0 3.4 3.4 3.4 3.6 3.6 3.8 3.9 4.2 4.3 4.2 4.2 4.1 4.7 4.9 4.5 4.6 4.5 4.8 5.4 5.6 6.2 6.2 6.0 6.3 6.3 5.9 6.0 5.8 5.6 6.1 6.2 6.3 6.6 6.6 6.8 7.1 7.6 8.2 8.1 8.6 9.2 9.6 9.7 9.8
2.9 2.9 2.7 2.6 2.7 2.7 2.7 2.8 3.0 3.1 3.2 3.6 3.9 3.9 3.9 4.2 4.7 4.7 4.2 4.2 4.7 5.6 5.8 6.6 6.4 6.5 6.6 6.9 6.6 6.3 6.3 6.1 6.1 6.5 7.3 6.9 7.1 6.8 6.7 7.5 8.0 7.9 8.1 9.6 9.4 9.8 9.8
2.6 2.6 2.4 2.2 2.1 2.2 2.2 2.4 2.6 3.1 3.3 3.5 3.8 3.8 3.9 4.2 4.7 5.0 4.4 3.8 4.9 5.5 5.8 6.5 6.8 6.7 6.9 6.9 7.0 6.9 6.7 6.7 6.6 6.8 7.4 7.4 7.1 7.5 7.3 7.5 8.3 8.1 8.3 9.0 9.6 9.5 9.7
1.6 1.6 1.6 1.8 1.8 1.9 2.3 2.5 2.8 3.0 3.3 3.5 3.8 3.9 4.0 4.1 4.3 4.6 4.3 3.9 5.1 5.3 5.5 6.3 7.1 7.3 7.5 7.5 7.1 7.1 7.2 6.9 6.9 6.8 7.4 8.1 7.9 7.8 7.4 7.6 8.1 8.7 8.2 9.1 9.5 9.6 9.5
0.8 0.7 0.8 1.0 1.2 1.5 1.6 1.9 2.2 2.5 2.8 3.0 3.1 3.5 4.0 4.0 4.0 4.3 3.7 4.4 4.9 5.1 5.5 6.3 6.7 7.6 7.5 7.7 7.1 7.8 7.6 7.4 7.2 7.2 7.3 7.9 7.7 8.4 8.4 7.4 7.9 8.4 8.8 9.0 9.5 9.5 10.0
0.7 0.6 0.8 1.2 1.4 1.8 1.9 1.8 2.0 2.1 2.4 2.6 2.8 2.8 3.3 3.9 3.9 3.8 4.1 4.9 4.8 5.1 5.7 5.9 6.5 6.8 7.3 7.5 7.2 7.5 7.3 7.6 6.9 7.6 7.3 7.9 9.1 8.5 8.0 8.0 8.1 8.7 8.5 8.8 9.2 9.4 9.5
1.1 1.3 1.4 1.8 2.0 2.5 2.6 2.6 2.6 2.7 2.8 3.0 3.5 3.6 3.9 4.2 3.7 4.8 4.7 4.6 4.8 4.9 5.9 6.3 6.3 6.3 6.8 7.1 7.1 7.2 7.4 7.3 6.9 7.6 7.9 8.4 8.7 9.1 9.0 9.0 8.8 8.7 8.8 8.9 9.4 9.0 9.6
2.3 2.3 2.7 2.9 3.1 3.3 3.8 3.8 3.9 4.0 4.4 4.8 4.9 4.3 4.5 4.7 4.7 4.5 4.9 4.4 4.9 5.4 5.7 6.2 6.6 6.6 6.7 7.0 7.2 7.1 7.3 7.4 7.3 7.6 7.7 7.8 8.5 8.5 9.2 8.4 8.5 8.0 8.4 9.0 9.5 9.6 9.5
3.5 3.6 3.4 3.8 4.3 4.5 4.7 5.1 4.7 5.0 5.5 5.9 5.6 5.4 6.0 5.9 6.2 5.3 5.0 4.8 4.9 5.5 5.9 6.3 6.3 6.5 6.9 7.2 7.0 7.0 7.3 7.6 7.7 7.8 7.9 7.7 8.0 9.0 8.5 9.5 9.6 9.5 8.9 8.5 8.8 9.0 9.6
4.3 4.8 5.2 5.2 5.1 5.1 5.3 5.3 5.9 5.5 6.0 6.2 6.0 5.6 6.0 6.2 6.6 6.5 5.9 5.6 5.6 5.9 6.2 6.0 6.7 7.3 7.1 7.3 7.2 7.6 7.4 7.5 7.9 8.3 8.0 7.7 7.7 8.1 8.5 8.6 9.4 9.6 9.6 9.6 9.2 8.6 8.6
5.6 6.1 6.0 5.9 5.7 5.9 5.9 5.8 6.1 6.2 6.3 6.5 6.4 6.2 6.0 6.1 6.6 6.5 6.6 6.6 6.8 6.1 5.8 6.3 6.3 5.6 6.0 7.0 7.1 7.2 7.2 7.2 8.0 8.2 8.3 8.2 7.8 8.1 8.3 9.1 9.3 9.5 9.5 9.6 9.4 8.9 8.4
6.1 5.9 6.0 6.0 6.0 6.1 6.1 6.1 6.3 6.3 6.4 6.6 6.7 6.7 6.6 6.2 6.4 6.3 6.2 5.9 6.1 6.2 6.0 7.4 6.2 6.0 6.4 6.1 6.4 6.9 6.7 6.9 7.1 7.3 7.6 8.0 7.9 8.3 8.5 9.4 9.6 9.3 9.5 9.4 9.5 9.5 8.7
6.4 6.2 6.2 6.5 6.4 6.4 6.4 6.3 6.3 6.3 6.3 6.5 6.8 6.8 6.7 6.4 6.5 6.5 6.3 6.5 6.5 6.9 6.9 7.5 7.8 7.2 6.8 6.8 6.8 7.3 7.3 7.2 7.2 7.2 7.6 7.8 7.7 8.7 9.2 9.4 9.5 9.5 9.4 8.8 9.1 8.9 8.9
6.5 6.5 6.4 6.5 6.6 6.5 6.5 6.5 6.6 6.6 6.5 6.5 6.7 6.8 6.8 6.3 6.7 6.6 6.5 6.7 6.8 7.4 7.4 7.4 7.4 7.5 7.5 7.3 7.5 7.8 8.1 7.9 8.1 7.8 7.6 7.9 7.5 8.3 9.2 9.3 9.4 7.9 8.4 8.4 8.7 8.5 8.8
7.0 6.8 6.6 6.6 6.7 6.6 6.7 7.0 7.0 6.9 6.9 6.9 7.1 6.9 6.6 6.2 7.1 7.0 6.7 6.5 6.2 6.0 6.5 6.5 7.6 7.2 7.6 7.5 7.5 7.6 8.7 9.2 9.3 8.3 7.4 7.5 7.7 8.0 8.6 9.3 9.3 8.4 8.6 8.4 8.2 8.8 8.9
6.8 6.8 6.6 6.7 6.8 6.8 7.1 7.3 7.2 7.3 7.2 7.2 7.2 6.9 6.9 6.5 7.4 6.9 6.7 5.9 6.7 6.2 6.2 6.5 6.6 7.0 7.3 7.2 7.2 8.0 8.8 8.5 9.1 9.0 7.6 7.7 7.9 8.6 9.2 9.0 9.3 8.2 7.8 8.1 8.3 8.0 8.6
6.9 6.7 6.7 6.8 7.0 7.1 7.2 7.4 7.5 7.3 7.4 7.4 7.3 7.0 6.9 6.4 7.5 7.1 6.7 6.4 6.8 6.8 5.9 6.4 6.6 6.7 6.7 6.9 6.7 7.2 7.8 7.3 8.5 8.2 7.9 8.4 8.7 9.2 8.4 8.8 7.8 7.9 7.8 8.0 8.7 7.7 7.2
Wind_Speed
20 21 21 22 22 23 24 25 25 25 25 25 26 26 27 28 28 28 29 28 27 27 25 21 17 14 8 8 14 6 8 7 12 19 20 20 23 20 18 14 10 12 5 4 4 11 11
21 22 22 23 24 24 24 24 25 25 25 26 27 27 28 29 30 31 30 29 28 29 26 21 14 7 6 15 3 7 7 6 7 18 20 20 17 21 11 13 15 10 5 2 6 12 12
19 20 21 22 23 24 25 25 26 26 26 26 27 27 28 29 31 33 33 32 31 30 26 19 8 7 8 17 2 7 8 8 7 14 16 22 15 18 14 12 6 7 9 6 8 12 10
19 19 20 21 22 23 24 24 25 25 26 27 29 29 30 31 33 32 33 34 34 25 14 9 11 8 8 2 5 11 13 12 9 12 16 19 12 17 11 7 10 13 11 10 11 14 9
20 21 21 22 21 23 24 25 24 25 25 26 27 30 32 32 35 35 35 35 25 7 3 12 8 6 8 6 9 8 11 9 11 10 13 12 13 15 12 16 14 13 14 15 11 15 10
20 20 21 21 20 22 23 24 26 26 27 27 26 28 31 32 36 36 38 30 3 4 6 5 4 5 7 7 7 2 8 12 10 14 15 16 13 13 15 17 17 17 18 16 13 16 12
19 20 21 21 20 22 22 24 26 27 27 28 29 31 33 33 35 35 20 2 5 7 9 10 2 8 3 4 4 7 12 13 13 18 17 21 17 22 24 22 20 15 15 15 14 14 16
19 20 21 20 21 22 22 23 24 26 28 29 29 29 32 35 37 34 11 5 5 5 12 16 22 21 19 6 7 13 15 13 16 19 18 15 22 22 20 22 23 18 18 17 13 9 15
19 20 19 19 20 22 23 22 23 24 25 27 30 29 30 35 39 11 8 3 4 10 7 11 13 13 13 19 19 19 18 19 18 20 20 19 20 20 21 20 23 21 20 18 14 12 15
20 20 19 19 19 20 21 23 23 25 26 26 28 30 28 37 12 10 2 2 8 6 5 6 7 7 10 9 10 23 23 19 15 22 20 20 18 22 19 24 22 23 21 18 16 14 13
20 19 21 20 19 20 22 24 22 23 25 27 29 31 26 20 12 5 5 8 10 4 6 7 7 9 12 11 3 16 22 22 20 18 18 20 21 20 24 24 23 23 17 17 18 18 17
19 19 20 20 20 21 21 24 24 24 26 28 29 30 28 6 6 11 12 8 4 7 9 6 8 11 10 13 8 6 23 22 17 20 16 22 15 19 23 21 23 20 12 15 18 16 19
21 21 18 20 20 20 21 22 24 26 28 29 33 33 24 13 4 1 7 5 6 9 4 9 10 14 9 10 14 13 22 26 22 21 22 22 21 17 17 23 24 21 18 12 15 15 15
22 19 20 20 19 20 21 22 23 26 28 29 35 40 6 9 6 9 6 7 14 4 17 4 7 13 14 9 10 17 19 24 28 24 16 21 22 26 18 26 26 28 26 15 25 16 14
23 20 21 20 19 20 22 22 23 25 27 27 39 7 7 3 10 6 8 15 11 16 12 13 12 13 18 14 7 14 20 24 29 27 24 20 27 27 25 19 26 28 27 25 23 20 17
23 20 21 21 20 19 20 22 23 25 25 26 10 11 7 3 8 7 10 25 21 16 10 13 21 15 18 19 13 13 16 14 25 30 25 14 15 21 24 21 27 28 23 24 21 25 23
18 18 19 19 19 18 19 20 20 22 21 28 7 6 6 4 8 7 14 22 22 24 16 18 21 19 15 12 14 15 14 11 17 25 25 24 15 18 20 26 25 21 20 25 23 22 18
19 21 21 19 18 18 17 18 19 21 19 10 5 6 4 4 7 9 14 18 6 16 22 21 18 21 21 19 16 15 13 11 2 17 28 27 15 17 25 26 27 25 25 27 18 25 20
23 22 21 20 19 17 18 18 17 20 10 8 5 8 3 6 7 13 15 15 15 20 20 22 26 22 21 22 20 20 18 12 7 8 17 22 21 15 19 19 24 29 27 28 26 21 27
23 22 21 20 19 19 17 16 16 17 9 6 4 5 5 7 10 11 15 13 20 15 19 22 21 22 23 23 21 15 17 14 13 16 7 7 19 23 18 24 21 21 27 29 28 20 22
21 21 21 21 21 19 17 18 14 13 9 6 4 3 2 5 5 9 12 15 15 14 16 15 19 24 22 23 23 24 20 14 10 9 9 15 18 17 25 23 24 25 25 26 29 29 27
21 20 20 20 20 18 19 20 17 13 5 5 4 3 3 11 16 14 13 13 15 15 13 16 18 12 26 22 20 18 19 20 17 14 16 14 14 18 21 24 24 21 25 27 28 28 29
22 21 20 21 21 19 19 18 16 12 8 4 3 6 6 7 9 8 11 13 8 10 11 16 15 11 10 8 9 9 12 9 16 16 17 17 14 16 19 21 23 25 27 27 29 28 28
24 24 23 23 23 22 19 18 16 12 14 2 5 3 3 11 10 7 11 13 15 16 16 21 18 15 4 14 16 14 15 16 17 18 15 13 17 15 15 17 21 20 24 26 28 28 30
25 23 24 24 24 23 20 18 18 14 13 4 4 3 3 7 12 12 14 14 15 14 17 19 18 18 13 12 8 9 13 17 23 23 23 17 12 14 15 16 13 15 13 14 24 28 25
24 24 24 22 21 22 19 18 16 14 13 5 4 5 2 3 8 5 9 9 11 10 14 15 10 12 9 7 11 14 15 14 17 18 23 19 18 14 10 19 18 6 8 8 10 14 24
25 22 21 21 20 19 17 17 14 14 11 4 3 10 3 3 11 16 12 12 10 9 9 9 6 5 4 7 10 11 15 20 18 22 19 15 16 20 17 13 9 6 7 2 6 5 21
24 21 20 19 18 17 16 13 13 11 10 8 3 10 6 3 12 23 23 18 11 8 4 9 7 2 4 5 6 8 12 8 17 20 22 20 16 13 12 13 16 6 4 5 6 12 12
21 20 19 18 14 13 7 9 10 8 5 5 3 5 8 5 6 20 21 21 20 22 15 7 11 7 3 3 3 4 6 5 12 13 7 18 16 12 6 4 6 4 2 2 3 6 10
Wind_Direction
8 8 6 5 3 0 358 356 353 353 350 348 345 342 338 336 333 327 322 319 318 315 311 309 310 309 286 244 251 156 158 168 192 199 208 202 207 212 229 226 199 230 187 245 185 172 174
4 3 1 1 359 357 357 354 353 351 349 346 344 341 336 333 330 325 320 319 316 311 305 301 298 278 243 260 284 173 159 157 196 199 205 212 213 214 254 240 212 214 245 176 209 175 178
3 2 1 359 357 356 355 353 351 350 349 346 343 339 335 332 329 323 319 319 315 308 299 288 252 218 244 249 204 187 201 233 201 212 214 210 219 203 223 212 205 183 189 168 183 167 172
359 359 358 356 356 354 353 350 349 346 344 341 340 338 334 331 324 321 319 317 315 308 296 265 185 202 258 164 246 239 228 228 224 221 231 202 215 235 240 140 186 199 220 196 163 170 162
355 355 354 351 352 351 349 347 345 343 341 339 339 337 332 330 324 322 321 316 310 313 117 146 175 235 264 120 222 208 197 202 182 184 211 179 209 216 197 203 202 203 213 215 159 195 163
351 350 349 347 347 347 346 346 344 341 339 337 337 335 331 330 324 324 322 305 232 216 189 228 259 237 238 218 154 197 170 162 162 163 165 188 201 204 209 209 212 197 232 186 179 192 190
347 346 345 343 343 341 341 342 342 341 338 335 335 333 331 329 323 324 321 269 223 197 208 251 245 263 159 147 208 202 172 178 173 178 184 191 203 208 203 214 227 218 207 207 201 161 202
340 340 338 338 337 335 334 336 336 338 336 334 332 334 332 328 323 321 286 318 51 342 295 250 248 254 250 256 258 196 181 184 180 188 197 182 215 207 212 211 229 233 218 218 165 175 214
334 332 329 329 331 332 331 327 328 332 333 332 330 333 333 328 319 298 330 95 32 338 263 274 231 240 221 204 224 208 200 206 197 201 194 208 201 213 213 210 217 223 228 220 198 181 221
328 326 322 321 325 327 327 323 321 327 330 330 329 329 336 333 292 343 295 109 322 316 274 200 207 196 172 172 219 224 194 205 206 209 198 221 209 205 208 223 209 219 220 230 212 188 222
320 316 318 318 319 322 324 325 316 322 326 328 328 326 332 322 302 290 357 315 317 242 281 108 148 143 158 191 67 187 203 204 209 207 199 202 209 201 213 212 210 228 221 226 235 210 238
315 315 314 321 324 322 322 325 325 320 323 323 323 321 326 289 251 265 304 302 252 227 239 175 153 186 181 206 200 142 196 216 226 214 208 226 197 215 223 215 222 219 236 233 233 233 226
311 313 316 316 320 321 320 321 323 322 318 319 318 316 308 279 268 357 307 245 223 238 116 184 191 188 212 174 193 177 188 199 206 202 205 213 198 212 212 213 211 210 209 206 217 221 232
297 303 309 308 316 317 317 317 319 320 321 318 317 311 273 253 243 265 249 210 231 230 218 137 200 196 222 186 214 194 193 202 212 212 203 206 211 201 195 212 202 209 211 219 214 220 221
303 297 302 309 315 317 318 321 321 321 322 323 314 306 274 236 207 222 216 221 215 230 224 237 195 215 216 212 254 204 212 210 209 213 226 203 226 197 212 211 218 202 218 226 241 224 234
311 304 306 310 310 314 317 321 320 320 324 327 313 303 257 189 185 203 224 234 226 254 254 221 225 209 218 209 204 209 202 222 221 215 222 226 224 216 199 211 220 228 206 220 229 232 227
317 310 307 309 305 305 305 315 318 323 332 321 286 293 71 170 185 212 232 230 236 244 249 246 233 236 226 223 221 228 235 200 221 210 220 228 219 211 206 208 204 209 230 215 231 227 239
308 307 303 301 300 300 303 312 316 323 335 309 302 283 105 205 233 228 244 252 295 257 231 239 257 246 245 240 233 234 224 226 203 228 206 222 209 238 211 215 222 210 215 215 224 222 234
305 303 303 296 298 299 303 310 314 321 333 326 292 287 180 248 252 244 238 249 253 256 241 235 233 239 238 244 237 242 229 232 254 238 216 208 226 213 232 207 220 226 212 223 217 233 227
306 304 302 299 297 296 293 298 301 314 317 304 285 292 197 208 266 280 287 280 263 247 256 257 250 233 230 238 229 229 234 231 237 241 252 293 214 223 215 217 193 213 232 229 226 225 236
308 306 304 299 295 293 288 286 292 311 306 291 232 259 349 289 283 331 302 291 290 279 257 250 243 243 229 224 225 228 234 207 189 151 205 220 227 229 230 244 223 221 210 225 234 240 239
305 304 304 304 300 297 291 290 291 292 279 268 288 288 348 287 279 276 269 261 275 275 274 263 237 245 231 235 228 222 217 221 235 227 221 216 230 236 234 234 241 241 229 230 225 233 240
296 295 296 296 297 294 291 291 296 282 165 265 235 263 255 269 265 276 274 273 284 346 285 261 297 326 278 264 320 304 289 271 239 234 226 218 221 234 238 225 238 239 240 233 234 231 235
296 291 289 287 286 284 287 290 288 268 204 201 284 253 279 268 261 267 295 304 298 288 279 287 296 293 293 338 311 261 247 248 244 244 240 224 218 220 238 230 237 244 242 237 243 236 232
300 295 292 292 288 285 282 283 286 272 241 203 230 207 223 268 273 282 273 284 288 291 271 270 284 283 288 289 265 231 223 223 231 228 231 225 235 221 235 230 237 228 217 258 243 238 240
304 297 293 293 294 290 281 279 281 272 249 202 224 205 218 272 261 306 305 301 289 289 285 261 277 305 290 257 240 234 217 205 210 204 216 221 217 244 202 244 236 52 21 353 327 256 236
303 302 295 293 290 291 283 276 282 276 258 185 235 205 187 249 272 272 264 280 307 296 281 298 337 299 246 245 233 225 239 207 206 188 178 196 199 213 229 229 211 31 342 145 211 289 321
301 304 301 295 292 291 282 276 280 272 254 189 226 202 212 246 270 278 276 267 249 266 288 341 308 178 273 246 225 229 243 223 215 180 186 195 197 210 228 216 226 5 209 236 354 326 312
298 295 297 292 286 299 279 288 284 263 226 187 242 206 219 235 272 299 281 264 257 258 259 259 297 330 283 306 343 316 270 258 216 187 166 197 209 210 241 190 86 77 83 50 29 360 349